| time (UTC) | temp F | wind direction | speed MPH | gust MPH | rain 1hr in | rain 24hr in | rain mn in | humidity % | barometer mb |
| 20260504194518 | 77 | 262 | 3.0 | 13.0 | 0.00 | 0.00 | 0.00 | 33 | 1015.0 |
| 20260504194005 | 77 | 270 | 4.0 | 10.0 | 0.00 | 0.00 | 0.00 | 32 | 1015.1 |
| 20260504193505 | 77 | 278 | 5.0 | 8.0 | 0.00 | 0.00 | 0.00 | 34 | 1015.2 |
| 20260504193021 | 77 | 187 | 3.0 | 8.0 | 0.00 | 0.00 | 0.00 | 33 | 1015.2 |
| 20260504192506 | 77 | 179 | 5.0 | 8.0 | 0.00 | 0.00 | 0.00 | 34 | 1015.3 |
| 20260504192007 | 76 | 194 | 3.0 | 7.0 | 0.00 | 0.00 | 0.00 | 36 | 1015.3 |
| 20260504191524 | 77 | 215 | 3.0 | 10.0 | 0.00 | 0.00 | 0.00 | 33 | 1015.4 |
| 20260504191007 | 77 | 262 | 4.0 | 10.0 | 0.00 | 0.00 | 0.00 | 34 | 1015.5 |
| 20260504190507 | 77 | 296 | 6.0 | 10.0 | 0.00 | 0.00 | 0.00 | 33 | 1015.5 |
| 20260504190035 | 76 | 280 | 4.0 | 8.0 | 0.00 | 0.00 | 0.00 | 34 | 1015.7 |
| 20260504185511 | 76 | 187 | 2.0 | 8.0 | 0.00 | 0.00 | 0.00 | 35 | 1015.7 |
| 20260504185009 | 75 | 230 | 4.0 | 8.0 | 0.00 | 0.00 | 0.00 | 36 | 1015.7 |
| 20260504184521 | 75 | 216 | 2.0 | 11.0 | 0.00 | 0.00 | 0.00 | 34 | 1015.9 |
| 20260504184004 | 75 | 240 | 8.0 | 11.0 | 0.00 | 0.00 | 0.00 | 34 | 1016.0 |
| 20260504183505 | 75 | 257 | 5.0 | 9.0 | 0.00 | 0.00 | 0.00 | 35 | 1015.9 |
| 20260504183014 | 75 | 206 | 5.0 | 14.0 | 0.00 | 0.00 | 0.00 | 38 | 1016.0 |
| 20260504182505 | 75 | 244 | 2.0 | 14.0 | 0.00 | 0.00 | 0.00 | 35 | 1016.1 |
| 20260504182004 | 75 | 252 | 7.0 | 11.0 | 0.00 | 0.00 | 0.00 | 36 | 1016.1 |
| 20260504181503 | 74 | 207 | 2.0 | 8.0 | 0.00 | 0.00 | 0.00 | 36 | 1016.2 |
| 20260504181004 | 74 | 228 | 2.0 | 8.0 | 0.00 | 0.00 | 0.00 | 35 | 1016.2 |
| 20260504180504 | 75 | 245 | 3.0 | 4.0 | 0.00 | 0.00 | 0.00 | 36 | 1016.2 |
| 20260504180007 | 74 | 36 | 1.0 | 7.0 | 0.00 | 0.00 | 0.00 | 36 | 1016.2 |
| 20260504175503 | 74 | 214 | 4.0 | 8.0 | 0.00 | 0.00 | 0.00 | 35 | 1016.3 |
| 20260504175004 | 74 | 274 | 3.0 | 8.0 | 0.00 | 0.00 | 0.00 | 35 | 1016.2 |
| 20260504174510 | 74 | 172 | 2.0 | 6.0 | 0.00 | 0.00 | 0.00 | 35 | 1016.2 |
| 20260504174003 | 74 | 227 | 2.0 | 8.0 | 0.00 | 0.00 | 0.00 | 35 | 1016.2 |
| 20260504173506 | 73 | 223 | 2.0 | 8.0 | 0.00 | 0.00 | 0.00 | 36 | 1016.3 |
| 20260504173014 | 74 | 275 | 6.0 | 8.0 | 0.00 | 0.00 | 0.00 | 35 | 1016.3 |
| 20260504172505 | 74 | 294 | 3.0 | 6.0 | 0.00 | 0.00 | 0.00 | 36 | 1016.3 |
| 20260504172006 | 73 | 106 | 2.0 | 6.0 | 0.00 | 0.00 | 0.00 | 35 | 1016.4 |
| 20260504171516 | 73 | 280 | 1.0 | 8.0 | 0.00 | 0.00 | 0.00 | 36 | 1016.5 |
| 20260504171004 | 73 | 300 | 3.0 | 8.0 | 0.00 | 0.00 | 0.00 | 36 | 1016.5 |
| 20260504170503 | 73 | 142 | 3.0 | 6.0 | 0.00 | 0.00 | 0.00 | 36 | 1016.7 |
| 20260504151007 | 67 | 355 | 1.0 | 7.0 | 0.00 | 0.00 | 0.00 | 41 | 1018.7 |
| 20260504150510 | 66 | 6 | 3.0 | 6.0 | 0.00 | 0.00 | 0.00 | 44 | 1018.6 |
| 20260504141007 | 62 | 124 | 0.0 | 2.0 | 0.00 | 0.00 | 0.00 | 55 | 1018.1 |
| 20260504140509 | 61 | 178 | 0.0 | 2.0 | 0.00 | 0.00 | 0.00 | 57 | 1018.2 |
| 20260504130507 | 53 | 177 | 0.0 | 2.0 | 0.00 | 0.00 | 0.00 | 69 | 1018.2 |
| 20260504110505 | 42 | 319 | 0.0 | 2.0 | 0.00 | 0.00 | 0.00 | 87 | 1017.7 |
| 20260504100508 | 43 | 353 | 0.0 | 2.0 | 0.00 | 0.00 | 0.00 | 85 | 1017.5 |
| 20260504082003 | 45 | 339 | 0.0 | 2.0 | 0.00 | 0.00 | 0.00 | 83 | 1017.4 |
| 20260504081504 | 45 | 339 | 0.0 | 2.0 | 0.00 | 0.00 | 0.00 | 83 | 1017.4 |
| 20260504081002 | 45 | 31 | 0.0 | 2.0 | 0.00 | 0.00 | 0.00 | 82 | 1017.4 |
| 20260504080503 | 45 | 31 | 0.0 | 2.0 | 0.00 | 0.00 | 0.00 | 82 | 1017.4 |
| 20260504050508 | 51 | 50 | 0.0 | 2.0 | 0.00 | 0.00 | 0.00 | 69 | 1017.7 |
| 20260504050023 | 51 | 50 | 0.0 | 2.0 | 0.00 | 0.00 | 0.00 | 69 | 1017.7 |
| 20260504045507 | 51 | 50 | 0.0 | 2.0 | 0.00 | 0.00 | 0.00 | 69 | 1017.6 |
| 20260504045009 | 51 | 44 | 1.0 | 2.0 | 0.00 | 0.00 | 0.00 | 69 | 1017.6 |
| 20260504044505 | 51 | 44 | 1.0 | 2.0 | 0.00 | 0.00 | 0.00 | 68 | 1017.6 |
| 20260504044003 | 52 | 31 | 1.0 | 2.0 | 0.00 | 0.00 | 0.00 | 68 | 1017.5 |
| 20260504043503 | 52 | 233 | 0.0 | 0.0 | 0.00 | 0.00 | 0.00 | 67 | 1017.3 |
| 20260504043015 | 52 | 233 | 0.0 | 2.0 | 0.00 | 0.00 | 0.00 | 66 | 1017.2 |
| 20260504042504 | 52 | 233 | 0.0 | 2.0 | 0.00 | 0.00 | 0.00 | 66 | 1017.2 |
| 20260504042005 | 53 | 233 | 0.0 | 2.0 | 0.00 | 0.00 | 0.00 | 66 | 1017.3 |
| 20260504041516 | 53 | 233 | 0.0 | 2.0 | 0.00 | 0.00 | 0.00 | 65 | 1017.4 |
| 20260504041006 | 53 | 233 | 0.0 | 2.0 | 0.00 | 0.00 | 0.00 | 64 | 1017.3 |
| 20260504040508 | 53 | 259 | 0.0 | 2.0 | 0.00 | 0.00 | 0.00 | 63 | 1017.4 |
| 20260504040024 | 54 | 228 | 0.0 | 2.0 | 0.00 | 0.00 | 0.00 | 62 | 1017.4 |
| 20260504035507 | 54 | 219 | 0.0 | 3.0 | 0.00 | 0.00 | 0.00 | 62 | 1017.4 |
| 20260504035009 | 53 | 280 | 1.0 | 3.0 | 0.00 | 0.00 | 0.00 | 61 | 1017.3 |
| 20260504034526 | 54 | 223 | 0.0 | 2.0 | 0.00 | 0.00 | 0.00 | 62 | 1017.3 |
| 20260504034009 | 54 | 221 | 0.0 | 2.0 | 0.00 | 0.00 | 0.00 | 62 | 1017.4 |
| 20260504033508 | 54 | 221 | 0.0 | 2.0 | 0.00 | 0.00 | 0.00 | 61 | 1017.5 |
| 20260504033008 | 55 | 202 | 0.0 | 2.0 | 0.00 | 0.00 | 0.00 | 60 | 1017.5 |
| 20260504032505 | 55 | 247 | 0.0 | 2.0 | 0.00 | 0.00 | 0.00 | 60 | 1017.5 |
| 20260504032008 | 55 | 247 | 0.0 | 2.0 | 0.00 | 0.00 | 0.00 | 60 | 1017.5 |
| 20260504031516 | 56 | 175 | 0.0 | 2.0 | 0.00 | 0.00 | 0.00 | 56 | 1017.5 |
| 20260504031005 | 56 | 168 | 1.0 | 2.0 | 0.00 | 0.00 | 0.00 | 56 | 1017.4 |
| 20260504030503 | 56 | 166 | 0.0 | 2.0 | 0.00 | 0.00 | 0.00 | 56 | 1017.4 |
| 20260504030025 | 56 | 172 | 0.0 | 2.0 | 0.00 | 0.00 | 0.00 | 57 | 1017.3 |
| 20260504025508 | 56 | 194 | 0.0 | 2.0 | 0.00 | 0.00 | 0.00 | 57 | 1017.3 |
| 20260504025006 | 57 | 225 | 0.0 | 2.0 | 0.00 | 0.00 | 0.00 | 55 | 1017.4 |
| 20260504024522 | 57 | 186 | 0.0 | 2.0 | 0.00 | 0.00 | 0.00 | 52 | 1017.3 |
| 20260504024008 | 58 | 185 | 1.0 | 2.0 | 0.00 | 0.00 | 0.00 | 50 | 1017.2 |
| 20260504023508 | 58 | 172 | 1.0 | 2.0 | 0.00 | 0.00 | 0.00 | 50 | 1017.3 |
| 20260504023029 | 58 | 166 | 1.0 | 2.0 | 0.00 | 0.00 | 0.00 | 50 | 1017.2 |
| 20260504022508 | 58 | 183 | 0.0 | 2.0 | 0.00 | 0.00 | 0.00 | 51 | 1017.2 |
| 20260504022003 | 58 | 235 | 1.0 | 2.0 | 0.00 | 0.00 | 0.00 | 51 | 1017.1 |
| 20260504021511 | 58 | 226 | 0.0 | 2.0 | 0.00 | 0.00 | 0.00 | 51 | 1017.1 |
| 20260504021004 | 58 | 220 | 0.0 | 2.0 | 0.00 | 0.00 | 0.00 | 50 | 1017.0 |
| 20260504020505 | 58 | 185 | 0.0 | 3.0 | 0.00 | 0.00 | 0.00 | 50 | 1016.8 |
| 20260504020020 | 59 | 172 | 1.0 | 3.0 | 0.00 | 0.00 | 0.00 | 47 | 1016.8 |
| 20260504015504 | 59 | 159 | 1.0 | 3.0 | 0.00 | 0.00 | 0.00 | 46 | 1016.7 |
| 20260504015009 | 59 | 170 | 1.0 | 3.0 | 0.00 | 0.00 | 0.00 | 47 | 1016.6 |
| 20260504014532 | 59 | 191 | 1.0 | 3.0 | 0.00 | 0.00 | 0.00 | 46 | 1016.6 |
| 20260504014007 | 59 | 138 | 1.0 | 2.0 | 0.00 | 0.00 | 0.00 | 46 | 1016.6 |
| 20260504013507 | 59 | 202 | 1.0 | 3.0 | 0.00 | 0.00 | 0.00 | 48 | 1016.5 |
| 20260504013034 | 60 | 237 | 1.0 | 3.0 | 0.00 | 0.00 | 0.00 | 45 | 1016.5 |
| 20260504012508 | 60 | 249 | 1.0 | 3.0 | 0.00 | 0.00 | 0.00 | 44 | 1016.5 |
| 20260504012009 | 60 | 212 | 1.0 | 2.0 | 0.00 | 0.00 | 0.00 | 44 | 1016.5 |
| 20260504011528 | 60 | 182 | 0.0 | 2.0 | 0.00 | 0.00 | 0.00 | 43 | 1016.5 |
| 20260504011010 | 61 | 199 | 1.0 | 3.0 | 0.00 | 0.00 | 0.00 | 42 | 1016.4 |
| 20260504010504 | 61 | 194 | 0.0 | 3.0 | 0.00 | 0.00 | 0.00 | 41 | 1016.3 |
| 20260504010019 | 61 | 186 | 1.0 | 3.0 | 0.00 | 0.00 | 0.00 | 41 | 1016.2 |
| 20260504005507 | 62 | 162 | 1.0 | 3.0 | 0.00 | 0.00 | 0.00 | 40 | 1016.2 |
| 20260504005006 | 62 | 151 | 1.0 | 3.0 | 0.00 | 0.00 | 0.00 | 40 | 1016.1 |
| 20260504004518 | 62 | 170 | 2.0 | 2.0 | 0.00 | 0.00 | 0.00 | 39 | 1016.1 |
| 20260504004008 | 63 | 143 | 1.0 | 4.0 | 0.00 | 0.00 | 0.00 | 38 | 1016.1 |
| 20260504003508 | 63 | 163 | 1.0 | 4.0 | 0.00 | 0.00 | 0.00 | 37 | 1016.0 |
| 20260504003025 | 63 | 227 | 1.0 | 4.0 | 0.00 | 0.00 | 0.00 | 37 | 1016.1 |
| 20260504002510 | 64 | 251 | 1.0 | 4.0 | 0.00 | 0.00 | 0.00 | 36 | 1016.0 |
| 20260504002007 | 64 | 237 | 1.0 | 5.0 | 0.00 | 0.00 | 0.00 | 36 | 1016.1 |
| 20260504001524 | 64 | 263 | 2.0 | 5.0 | 0.00 | 0.00 | 0.00 | 35 | 1016.0 |
| 20260504001008 | 65 | 229 | 1.0 | 4.0 | 0.00 | 0.00 | 0.00 | 34 | 1016.0 |
| 20260504000510 | 65 | 226 | 1.0 | 4.0 | 0.00 | 0.00 | 0.00 | 33 | 1015.9 |
| 20260504000010 | 65 | 261 | 2.0 | 3.0 | 0.00 | 0.00 | 0.00 | 34 | 1015.9 |
| 20260503235503 | 65 | 239 | 1.0 | 3.0 | 0.00 | 0.00 | 0.00 | 32 | 1015.9 |
| 20260503235004 | 65 | 235 | 1.0 | 4.0 | 0.00 | 0.00 | 0.00 | 33 | 1015.9 |
| 20260503234516 | 66 | 258 | 2.0 | 4.0 | 0.00 | 0.00 | 0.00 | 32 | 1015.9 |
| 20260503234006 | 66 | 242 | 2.0 | 6.0 | 0.00 | 0.00 | 0.00 | 31 | 1015.9 |
| 20260503233503 | 66 | 255 | 2.0 | 9.0 | 0.00 | 0.00 | 0.00 | 32 | 1015.9 |
| 20260503233009 | 66 | 244 | 3.0 | 9.0 | 0.00 | 0.00 | 0.00 | 31 | 1015.9 |
| 20260503232502 | 67 | 256 | 3.0 | 10.0 | 0.00 | 0.00 | 0.00 | 31 | 1015.8 |
| 20260503232004 | 67 | 232 | 4.0 | 10.0 | 0.00 | 0.00 | 0.00 | 30 | 1015.8 |
| 20260503231506 | 67 | 267 | 3.0 | 8.0 | 0.00 | 0.00 | 0.00 | 30 | 1015.8 |
| 20260503231002 | 67 | 266 | 3.0 | 9.0 | 0.00 | 0.00 | 0.00 | 29 | 1015.9 |
| 20260503230505 | 67 | 228 | 6.0 | 9.0 | 0.00 | 0.00 | 0.00 | 29 | 1015.9 |
| 20260503230008 | 68 | 254 | 5.0 | 8.0 | 0.00 | 0.00 | 0.00 | 30 | 1015.9 |
| 20260503225503 | 68 | 195 | 2.0 | 6.0 | 0.00 | 0.00 | 0.00 | 32 | 1016.0 |
| 20260503225003 | 68 | 241 | 3.0 | 7.0 | 0.00 | 0.00 | 0.00 | 32 | 1016.0 |
| 20260503224513 | 68 | 215 | 4.0 | 7.0 | 0.00 | 0.00 | 0.00 | 30 | 1015.9 |
| 20260503224006 | 68 | 268 | 4.0 | 7.0 | 0.00 | 0.00 | 0.00 | 30 | 1015.9 |
| 20260503223504 | 68 | 228 | 1.0 | 6.0 | 0.00 | 0.00 | 0.00 | 32 | 1016.0 |
| 20260503223017 | 68 | 272 | 3.0 | 7.0 | 0.00 | 0.00 | 0.00 | 31 | 1016.0 |
| 20260503222502 | 68 | 209 | 4.0 | 10.0 | 0.00 | 0.00 | 0.00 | 31 | 1016.0 |
| 20260503222002 | 68 | 266 | 4.0 | 10.0 | 0.00 | 0.00 | 0.00 | 31 | 1016.0 |
| 20260503221505 | 68 | 197 | 4.0 | 7.0 | 0.00 | 0.00 | 0.00 | 32 | 1016.1 |
| 20260503221005 | 68 | 261 | 5.0 | 7.0 | 0.00 | 0.00 | 0.00 | 32 | 1016.1 |
| 20260503220503 | 68 | 262 | 2.0 | 8.0 | 0.00 | 0.00 | 0.00 | 31 | 1016.1 |
| 20260503220007 | 68 | 220 | 2.0 | 8.0 | 0.00 | 0.00 | 0.00 | 31 | 1016.0 |
| 20260503215503 | 68 | 262 | 5.0 | 9.0 | 0.00 | 0.00 | 0.00 | 31 | 1016.1 |
| 20260503215006 | 68 | 263 | 2.0 | 9.0 | 0.00 | 0.00 | 0.00 | 32 | 1016.2 |
| 20260503214511 | 68 | 281 | 4.0 | 10.0 | 0.00 | 0.00 | 0.00 | 31 | 1016.4 |
| 20260503214005 | 67 | 240 | 5.0 | 10.0 | 0.00 | 0.00 | 0.00 | 31 | 1016.4 |
| 20260503213505 | 67 | 297 | 6.0 | 10.0 | 0.00 | 0.00 | 0.00 | 32 | 1016.5 |
| 20260503213016 | 67 | 263 | 6.0 | 10.0 | 0.00 | 0.00 | 0.00 | 32 | 1016.5 |
| 20260503212508 | 67 | 318 | 4.0 | 11.0 | 0.00 | 0.00 | 0.00 | 31 | 1016.6 |
| 20260503212007 | 67 | 284 | 5.0 | 11.0 | 0.00 | 0.00 | 0.00 | 31 | 1016.6 |
| 20260503211503 | 67 | 237 | 2.0 | 8.0 | 0.00 | 0.00 | 0.00 | 32 | 1016.7 |
| 20260503211003 | 67 | 225 | 3.0 | 11.0 | 0.00 | 0.00 | 0.00 | 31 | 1016.7 |
| 20260503210503 | 67 | 185 | 5.0 | 11.0 | 0.00 | 0.00 | 0.00 | 31 | 1016.8 |
| 20260503210006 | 67 | 301 | 2.0 | 10.0 | 0.00 | 0.00 | 0.00 | 32 | 1016.8 |
| 20260503205503 | 67 | 199 | 3.0 | 11.0 | 0.00 | 0.00 | 0.00 | 31 | 1016.8 |
| 20260503205003 | 67 | 269 | 6.0 | 12.0 | 0.00 | 0.00 | 0.00 | 31 | 1017.0 |
| 20260503204508 | 67 | 223 | 6.0 | 12.0 | 0.00 | 0.00 | 0.00 | 31 | 1017.0 |
| 20260503204004 | 67 | 282 | 3.0 | 9.0 | 0.00 | 0.00 | 0.00 | 32 | 1017.1 |
| 20260503203507 | 66 | 140 | 1.0 | 9.0 | 0.00 | 0.00 | 0.00 | 30 | 1017.1 |
| 20260503203037 | 67 | 232 | 6.0 | 11.0 | 0.00 | 0.00 | 0.00 | 29 | 1017.2 |
| 20260503202507 | 67 | 249 | 7.0 | 11.0 | 0.00 | 0.00 | 0.00 | 29 | 1017.2 |
| 20260503202007 | 67 | 251 | 7.0 | 11.0 | 0.00 | 0.00 | 0.00 | 30 | 1017.3 |
| 20260503201518 | 67 | 280 | 7.0 | 10.0 | 0.00 | 0.00 | 0.00 | 29 | 1017.4 |
| 20260503201009 | 66 | 267 | 4.0 | 11.0 | 0.00 | 0.00 | 0.00 | 30 | 1017.5 |
| 20260503200502 | 66 | 244 | 3.0 | 11.0 | 0.00 | 0.00 | 0.00 | 29 | 1017.5 |
| 20260503200004 | 66 | 188 | 6.0 | 10.0 | 0.00 | 0.00 | 0.00 | 29 | 1017.7 |
| 20260503195502 | 66 | 237 | 7.0 | 10.0 | 0.00 | 0.00 | 0.00 | 31 | 1017.7 |
| 20260503195002 | 66 | 209 | 6.0 | 14.0 | 0.00 | 0.00 | 0.00 | 30 | 1017.8 |